[[{"header":{"parameterUnit":"m.s-1","parameterCategory":1,"la1":30.2991,"la2":30.254,"lo1":-89.0895,"lo2":-89.0444,"dy":0.0017,"dx":0.0017,"nx":28,"ny":28,"refTime":"2023-08-24T09:00:00:Z","depth":0,"parameterNumber":2,"parameterNumberName":"U-component_of_WINDS"},"data":[0,0,0,0,0,0,0,0,0,0,0,0,0,0,0,0,0,0,0,0,0,0,0,0,0,0,0,0,0,0,0,0,0,0,0,0,0,0,0,0,0,0,0,0,0,0,0,0,0,0,0,0,0,0,0,0,0,0,4.8196,4.8197,0,4.8258,4.8259,4.826,4.8151,4.8147,4.8144,4.814,4.8205,4.821,4.8215,0,0,0,0,0,0,0,0,0,0,0,0,0,4.7984,4.7988,4.8196,4.8197,4.8198,4.8258,4.8259,4.826,4.8152,4.8147,4.8143,4.8139,4.8203,4.8209,4.8215,0,0,0,0,0,0,0,0,0,0,0,0,0,4.8064,4.799,4.8196,4.8151,4.8148,4.8258,4.8259,4.826,4.8153,4.8147,4.8142,4.8137,4.8201,4.8209,4.8216,4.8374,0,0,4.824,4.8243,0,0,0,0,0,0,0,0,4.806,4.8072,4.8157,4.8154,4.8151,4.8191,4.8208,4.8298,4.8154,4.8151,4.814,4.8134,4.8205,4.8212,4.8236,4.8377,4.8379,4.824,4.8245,4.8248,4.8251,0,0,0,0,0,0,0,4.8054,4.8069,4.8221,4.8158,4.8155,4.8128,4.8133,4.8224,4.8208,4.8151,4.8143,4.8152,4.8202,4.8229,4.8236,4.838,4.824,4.8247,4.8252,4.8255,4.8651,4.8657,0,0,0,0,0,0,4.8054,4.8065,4.8219,4.8223,4.8091,4.8136,4.8142,4.8184,4.8207,4.8205,4.8156,4.8146,4.8218,4.8228,4.8238,4.8422,4.8248,4.8256,4.826,4.8645,4.8653,4.8659,0,0,0,0,0,0,4.805,4.8069,4.8216,4.8142,4.8158,4.8146,4.8194,4.8188,4.8214,4.8211,4.8207,4.8186,4.8214,4.8227,4.834,4.8423,4.8259,4.8266,4.8638,4.8648,4.8656,4.8792,0,0,0,0,0,0,4.8045,4.8068,4.8128,4.8144,4.8163,4.8318,4.8199,4.8193,4.8228,4.8215,4.8238,4.8237,4.8211,4.8329,4.8348,4.843,4.8272,4.8631,4.8642,4.8653,4.878,4.8805,4.8826,0,0,0,0,0,4.8037,4.8165,4.8132,4.8151,4.8237,4.8323,4.8334,4.8301,4.8235,4.8294,4.8292,4.8236,4.8411,4.8342,4.8362,4.8448,4.8626,4.8639,4.8652,4.877,4.88,4.8825,0,0,0,0,0,0,4.816,4.8166,4.8129,4.8266,4.8295,4.8304,4.8379,4.8334,4.8382,4.8369,4.8326,4.8333,4.8454,4.8462,4.8385,4.86,4.8507,4.8525,4.859,4.8618,4.8641,4.8635,4.8278,0,0,0,0,0,4.8203,4.8271,4.8273,4.8393,4.841,4.8392,4.8428,4.84,4.8428,4.844,4.8446,4.8476,4.8537,4.8578,4.8635,4.8782,4.8784,4.8851,4.8873,4.8892,4.8907,4.8984,4.9013,4.8703,4.8703,4.8702,0,0,4.8292,4.8304,4.835,4.8418,4.8437,4.8509,4.8403,4.8484,4.8536,4.8452,4.8558,4.8564,4.8594,4.8724,4.8782,4.8735,4.8994,4.8909,4.8924,4.8929,4.9,4.903,4.9056,4.8712,4.871,4.8709,0,0,4.849,4.8507,4.8608,4.8629,4.8659,4.8646,4.867,4.8687,4.8687,4.8793,4.8731,4.8793,4.89,4.8923,4.8949,4.9156,4.9105,4.9176,4.9294,4.9368,4.9393,4.9414,4.9486,4.9513,4.9192,4.9192,4.9192,0,4.8598,4.8703,4.8666,4.875,4.8782,4.8709,4.881,4.8832,4.8879,4.8902,4.8849,4.8981,4.8996,4.913,4.918,4.9204,4.9229,4.9172,4.9392,4.9413,4.9433,4.9501,4.9528,4.92,4.9199,4.9198,4.9198,0,4.8832,4.8907,4.8985,4.9031,4.9071,4.9164,4.914,4.9185,4.9154,4.9147,4.9255,4.927,4.9328,4.9358,4.9329,4.9487,4.9457,4.9399,4.9304,4.9471,4.9534,4.956,4.9212,4.9209,4.9207,4.9205,0,0,4.911,4.9133,4.9162,4.9182,4.9209,4.9265,4.9354,4.941,4.9448,4.9484,4.9556,4.9648,4.9594,4.9624,4.9597,4.9663,4.9823,4.9596,4.9596,4.9636,4.9996,5.0037,5.0068,4.979,4.9795,4.9799,4.9992,0,4.9306,4.9459,4.9427,4.9577,4.9644,4.9575,4.9652,4.9677,4.9672,4.9728,4.9723,4.9788,4.9714,4.9731,4.9793,4.979,4.9894,4.9776,4.9856,4.9859,4.9849,5.0102,5.0147,5.0329,5.0017,5.0021,5.0024,0,4.9555,4.9598,4.9754,4.9768,4.9795,4.9866,4.9913,4.9968,4.9994,4.9986,5.0019,4.9978,5.0066,4.9971,5.0091,5.0011,5.0042,5.0046,5.0052,5.0057,4.9951,5.0112,5.0386,5.0413,5.0063,5.006,5.0057,0,4.9739,4.9836,4.9942,4.9961,4.9981,5.0031,5.0042,5.0063,5.0098,5.0139,5.0161,5.0213,5.0241,5.0282,5.0257,5.019,5.038,5.0283,5.0375,5.0375,5.0416,5.0414,5.0698,5.044,5.044,5.0439,5.0439,0,4.996,5.0058,5.0024,5.0089,5.0196,5.0159,5.0266,5.0269,5.0288,5.0351,5.0295,5.0356,5.032,5.0378,5.0358,5.0459,5.0473,5.0468,5.0461,5.0472,5.0472,5.0491,5.0477,5.0446,5.0445,5.0443,5.0442,0,5.0184,5.0166,5.0275,5.0285,5.029,5.0368,5.0376,5.0436,5.0427,5.0508,5.0525,5.0511,5.0576,5.0555,5.0625,5.0612,5.0739,5.0718,5.073,5.0724,5.0816,5.0807,5.112,5.1158,5.0878,5.088,5.0883,0,5.0326,5.0399,5.0416,5.0454,5.0469,5.0532,5.0566,5.0532,5.0571,5.0605,5.0661,5.0721,5.0767,5.0874,5.087,5.0923,5.0901,5.1007,5.0908,5.0916,5.09,5.0895,5.0901,5.1026,5.1029,5.1032,5.1034,0,5.0578,5.0565,5.0617,5.0666,5.0709,5.0746,5.0778,5.0813,5.0781,5.0827,5.0892,5.0928,5.0999,5.1058,5.1106,5.1116,5.107,5.1065,5.1089,5.11,5.1103,5.11,5.0782,5.1058,5.1056,5.1054,5.1053,5.1052,5.0764,5.0825,5.0846,5.0905,5.0926,5.0957,5.1013,5.101,5.1064,5.1118,5.1095,5.117,5.1193,5.1252,5.1269,5.1327,5.1286,5.1321,5.1329,5.1338,5.1348,5.1095,5.1336,5.1335,5.1334,5.1334,5.1333,0,5.1012,5.1021,5.1077,5.1123,5.1169,5.1121,5.1154,5.1196,5.1262,5.1287,5.1333,5.1407,5.1465,5.1465,5.1518,5.1564,5.1544,5.1579,5.1574,5.1577,5.1383,5.1356,5.1594,5.1594,5.1594,5.1594,5.1594,5.1594,5.1146,5.1246,5.1236,5.1345,5.1354,5.1426,5.1448,5.1476,5.1496,5.1581,5.1628,5.1627,5.1642,5.1696,5.1746,5.1744,5.1765,5.1808,5.1799,5.1617,5.1591,5.1566,5.1541,5.1814,5.1814,5.1988,5.1989,5.1991]},{"header":{"parameterUnit":"m.s-1","parameterCategory":1,"la1":30.2991,"la2":30.254,"lo1":-89.0895,"lo2":-89.0444,"dy":0.0017,"dx":0.0017,"nx":28,"ny":28,"refTime":"2023-08-24T09:00:00:Z","depth":0,"parameterNumber":3,"parameterNumberName":"V-component_of_WINDS"},"data":[0,0,0,0,0,0,0,0,0,0,0,0,0,0,0,0,0,0,0,0,0,0,0,0,0,0,0,0,0,0,0,0,0,0,0,0,0,0,0,0,0,0,0,0,0,0,0,0,0,0,0,0,0,0,0,0,0,0,1.1767,1.1768,0,1.1796,1.1797,1.1797,1.1774,1.1773,1.1772,1.1771,1.18,1.1801,1.1803,0,0,0,0,0,0,0,0,0,0,0,0,0,1.1691,1.1692,1.1767,1.1768,1.1768,1.1796,1.1797,1.1797,1.1774,1.1773,1.1772,1.177,1.1799,1.1801,1.1803,0,0,0,0,0,0,0,0,0,0,0,0,0,1.1722,1.1693,1.1767,1.176,1.176,1.1796,1.1797,1.1797,1.1774,1.1773,1.1771,1.177,1.1799,1.1801,1.1804,1.1849,0,0,1.1811,1.1812,0,0,0,0,0,0,0,0,1.172,1.1725,1.1761,1.1761,1.176,1.178,1.178,1.1815,1.1775,1.1769,1.1771,1.1769,1.1794,1.1797,1.1806,1.185,1.1851,1.1812,1.1813,1.1814,1.1815,0,0,0,0,0,0,0,1.1718,1.1724,1.1779,1.1761,1.1761,1.1755,1.1758,1.1787,1.1789,1.1769,1.1767,1.1771,1.1794,1.1803,1.1806,1.1852,1.1811,1.1814,1.1815,1.1816,1.1934,1.1935,0,0,0,0,0,0,1.1717,1.1722,1.1778,1.178,1.1736,1.1757,1.1761,1.1775,1.1789,1.179,1.1772,1.177,1.18,1.1803,1.1807,1.1861,1.1814,1.1817,1.1818,1.1932,1.1934,1.1936,0,0,0,0,0,0,1.1715,1.1722,1.1777,1.175,1.1757,1.176,1.1777,1.1776,1.1786,1.1792,1.1792,1.1782,1.1799,1.1804,1.1839,1.1861,1.1818,1.182,1.193,1.1933,1.1935,1.1968,0,0,0,0,0,0,1.1713,1.1722,1.1739,1.1751,1.1758,1.1808,1.1778,1.1778,1.179,1.1788,1.18,1.1801,1.1798,1.1835,1.1841,1.1864,1.1822,1.1928,1.1932,1.1934,1.1965,1.1972,1.1977,0,0,0,0,0,1.1711,1.1748,1.174,1.1747,1.1781,1.181,1.1814,1.181,1.1792,1.181,1.1813,1.1801,1.1858,1.1839,1.1845,1.187,1.1927,1.1931,1.1934,1.1963,1.197,1.1977,0,0,0,0,0,0,1.1739,1.1749,1.1741,1.1783,1.1796,1.1806,1.1828,1.1818,1.1836,1.1832,1.1826,1.1829,1.1866,1.1871,1.1849,1.1914,1.189,1.1895,1.1909,1.1916,1.1922,1.192,1.1824,0,0,0,0,0,1.175,1.1773,1.178,1.1817,1.1823,1.1824,1.1837,1.1832,1.1845,1.185,1.1856,1.1869,1.1889,1.1903,1.1922,1.1966,1.1968,1.1986,1.1991,1.1996,1.2001,1.2023,1.2031,1.1948,1.1948,1.1948,0,0,1.1773,1.1781,1.1796,1.1822,1.1832,1.1855,1.1829,1.1855,1.1872,1.1854,1.1887,1.1892,1.1905,1.1945,1.1962,1.195,1.2024,1.2001,1.2005,1.2007,1.2028,1.2036,1.2043,1.195,1.195,1.1949,0,0,1.1827,1.1836,1.1866,1.1876,1.189,1.1891,1.1898,1.1909,1.1912,1.1945,1.1932,1.1952,1.1988,1.1998,1.2007,1.2064,1.2053,1.2071,1.2101,1.2123,1.213,1.2136,1.2155,1.2163,1.2075,1.2075,1.2075,0,1.1853,1.1889,1.1883,1.191,1.1922,1.1907,1.1937,1.1947,1.1967,1.1975,1.1961,1.2005,1.2013,1.2054,1.2068,1.2077,1.2084,1.2069,1.2129,1.2135,1.2141,1.2159,1.2167,1.2077,1.2077,1.2077,1.2076,0,1.192,1.1945,1.1968,1.1987,1.2002,1.203,1.2029,1.2044,1.2038,1.204,1.2074,1.2082,1.2103,1.2112,1.2107,1.2152,1.2144,1.213,1.2106,1.2151,1.2168,1.2175,1.208,1.2079,1.2079,1.2078,0,0,1.1993,1.2009,1.2017,1.2026,1.204,1.2059,1.2086,1.2106,1.2119,1.2133,1.2156,1.2186,1.2173,1.2184,1.2179,1.2199,1.2242,1.2182,1.2182,1.2193,1.2292,1.2302,1.2311,1.2235,1.2236,1.2237,1.2291,0,1.2047,1.2096,1.2092,1.2137,1.2159,1.2145,1.2169,1.218,1.2182,1.2201,1.2203,1.2224,1.2205,1.2212,1.223,1.2233,1.2262,1.2229,1.2256,1.2257,1.2253,1.232,1.2331,1.2381,1.2298,1.2299,1.23,0,1.2117,1.2133,1.2181,1.2191,1.22,1.2222,1.224,1.2258,1.227,1.227,1.2282,1.2274,1.2301,1.2277,1.2314,1.2291,1.2302,1.2305,1.2306,1.2309,1.2281,1.2324,1.2397,1.2404,1.231,1.231,1.2309,0,1.2164,1.2198,1.2231,1.2239,1.2252,1.2267,1.2273,1.2284,1.2296,1.2311,1.2319,1.2337,1.2347,1.2361,1.2358,1.2341,1.2396,1.2371,1.2396,1.2396,1.2409,1.2408,1.2484,1.2416,1.2416,1.2416,1.2415,0,1.2225,1.2255,1.2253,1.2273,1.2305,1.23,1.2333,1.2337,1.2346,1.2366,1.2355,1.2374,1.2369,1.2388,1.2385,1.2416,1.2421,1.2421,1.242,1.2422,1.2422,1.2429,1.2425,1.2418,1.2417,1.2417,1.2416,0,1.2284,1.2283,1.2318,1.2327,1.233,1.2354,1.2362,1.238,1.2381,1.2407,1.2413,1.2414,1.2436,1.2434,1.2459,1.2457,1.2495,1.249,1.2491,1.2489,1.2515,1.2512,1.2598,1.2609,1.2534,1.2534,1.2535,0,1.2322,1.2345,1.2356,1.2369,1.2376,1.2397,1.2409,1.2405,1.2418,1.2433,1.245,1.247,1.2486,1.2521,1.2524,1.2543,1.2538,1.2566,1.254,1.2541,1.2537,1.2536,1.2538,1.2572,1.2572,1.2573,1.2574,0,1.239,1.2389,1.2407,1.2426,1.2441,1.2455,1.2468,1.2479,1.2476,1.2491,1.2513,1.2525,1.255,1.257,1.2587,1.2593,1.2583,1.2582,1.2589,1.2591,1.259,1.259,1.2504,1.258,1.2579,1.2579,1.2578,1.2578,1.244,1.2459,1.247,1.249,1.25,1.2512,1.253,1.2533,1.2551,1.2571,1.2567,1.2592,1.2602,1.2624,1.2632,1.265,1.264,1.265,1.2652,1.2655,1.2657,1.2587,1.2653,1.2653,1.2653,1.2653,1.2653,0,1.2507,1.2513,1.2532,1.255,1.2567,1.2556,1.2569,1.2583,1.2605,1.2616,1.2632,1.2657,1.2676,1.2681,1.2699,1.2713,1.2709,1.2718,1.2717,1.2718,1.2666,1.2658,1.2721,1.2721,1.2721,1.2721,1.2721,1.2721,1.2543,1.2575,1.2575,1.2611,1.2617,1.2641,1.2649,1.266,1.2669,1.2697,1.2713,1.2716,1.2724,1.2743,1.276,1.2761,1.2768,1.2779,1.2778,1.2729,1.2722,1.2715,1.2708,1.2781,1.2781,1.2828,1.2829,1.2829]}]]